| time (UTC) | temp C | wind direction | speed KPH | gust KPH | rain 1hr cm | rain 24hr cm | rain mn cm | humidity % | barometer mb |
| 20260901123102 | 29 | 144 | 6.4 | 20.9 | 0.00 | 0.00 | 0.00 | 43 | 1022.3 |
| 20260901121610 | 29 | 109 | 6.4 | 16.1 | 0.00 | 0.00 | 0.00 | 42 | 1022.3 |
| 20260901120115 | 29 | 119 | 4.8 | 19.3 | 0.00 | 0.00 | 0.00 | 44 | 1022.4 |
| 20260901114609 | 29 | 174 | 6.4 | 24.1 | 0.00 | 0.00 | 0.00 | 45 | 1022.5 |
| 20260901113103 | 30 | 90 | 1.6 | 12.9 | 0.00 | 0.00 | 0.00 | 43 | 1022.4 |
| 20260901111604 | 29 | 109 | 3.2 | 12.9 | 0.00 | 0.00 | 0.00 | 45 | 1022.4 |
| 20260901110056 | 29 | 113 | 4.8 | 16.1 | 0.00 | 0.00 | 0.00 | 47 | 1022.4 |
| 20260901104555 | 29 | 83 | 0.0 | 14.5 | 0.00 | 0.00 | 0.00 | 47 | 1022.3 |
| 20260901103107 | 28 | 132 | 6.4 | 17.7 | 0.00 | 0.00 | 0.00 | 48 | 1022.3 |
| 20260901101601 | 28 | 0 | 1.6 | 12.9 | 0.00 | 0.00 | 0.00 | 47 | 1022.3 |
| 20260901100145 | 28 | 126 | 4.8 | 12.9 | 0.00 | 0.00 | 0.00 | 48 | 1022.3 |
| 20260901094556 | 27 | 5 | 3.2 | 14.5 | 0.00 | 0.00 | 0.00 | 50 | 1022.4 |
| 20260901093054 | 27 | 0 | 1.6 | 8.0 | 0.00 | 0.00 | 0.00 | 54 | 1022.5 |
| 20260901091610 | 27 | 124 | 1.6 | 11.3 | 0.00 | 0.00 | 0.00 | 56 | 1022.5 |
| 20260901084553 | 26 | 109 | 1.6 | 8.0 | 0.00 | 0.00 | 0.00 | 61 | 1022.3 |
| 20260901083106 | 25 | 121 | 1.6 | 8.0 | 0.00 | 0.00 | 0.00 | 63 | 1022.4 |
| 20260901081556 | 24 | 0 | 0.0 | 8.0 | 0.00 | 0.00 | 0.00 | 65 | 1022.2 |
| 20260901074552 | 23 | 104 | 1.6 | 8.0 | 0.00 | 0.00 | 0.00 | 64 | 1022.1 |
| 20260901073050 | 23 | 0 | 1.6 | 4.8 | 0.00 | 0.00 | 0.00 | 67 | 1021.9 |
| 20260901071555 | 22 | 121 | 1.6 | 4.8 | 0.00 | 0.00 | 0.00 | 69 | 1021.9 |
| 20260901070055 | 22 | 0 | 1.6 | 4.8 | 0.00 | 0.00 | 0.00 | 71 | 1021.9 |
| 20260901064607 | 21 | 92 | 0.0 | 4.8 | 0.00 | 0.00 | 0.00 | 73 | 1021.9 |
| 20260901063100 | 20 | 52 | 0.0 | 3.2 | 0.00 | 0.00 | 0.00 | 74 | 1022.0 |
| 20260901061554 | 19 | 51 | 0.0 | 3.2 | 0.00 | 0.00 | 0.00 | 75 | 1022.1 |
| 20260901060100 | 18 | 0 | 0.0 | 3.2 | 0.00 | 0.00 | 0.00 | 75 | 1022.0 |
| 20260901054553 | 18 | 0 | 0.0 | 3.2 | 0.00 | 0.00 | 0.00 | 75 | 1021.9 |
| 20260901053104 | 18 | 0 | 0.0 | 0.0 | 0.00 | 0.00 | 0.00 | 76 | 1021.8 |
| 20260901051603 | 18 | 0 | 0.0 | 0.0 | 0.00 | 0.00 | 0.00 | 76 | 1021.9 |
| 20260901050100 | 18 | 0 | 0.0 | 3.2 | 0.00 | 0.00 | 0.00 | 76 | 1021.7 |
| 20260901044602 | 18 | 0 | 0.0 | 0.0 | 0.00 | 0.00 | 0.00 | 77 | 1021.7 |
| 20260901043105 | 18 | 0 | 0.0 | 1.6 | 0.00 | 0.00 | 0.00 | 76 | 1021.7 |
| 20260901041557 | 18 | 0 | 0.0 | 1.6 | 0.00 | 0.00 | 0.00 | 74 | 1021.6 |
| 20260901034603 | 18 | 0 | 0.0 | 1.6 | 0.00 | 0.00 | 0.00 | 73 | 1021.5 |
| 20260901033100 | 18 | 0 | 1.6 | 4.8 | 0.00 | 0.00 | 0.00 | 70 | 1021.5 |
| 20260901031600 | 18 | 0 | 0.0 | 4.8 | 0.00 | 0.00 | 0.00 | 71 | 1021.4 |
| 20260901030058 | 18 | 0 | 0.0 | 3.2 | 0.00 | 0.00 | 0.00 | 72 | 1021.4 |
| 20260901024554 | 18 | 18 | 0.0 | 3.2 | 0.00 | 0.00 | 0.00 | 72 | 1021.4 |
| 20260901023102 | 19 | 0 | 0.0 | 4.8 | 0.00 | 0.00 | 0.00 | 75 | 1021.3 |
| 20260901021601 | 19 | 0 | 1.6 | 4.8 | 0.00 | 0.00 | 0.00 | 74 | 1021.1 |
| 20260901014559 | 19 | 360 | 3.2 | 8.0 | 0.00 | 0.00 | 0.00 | 77 | 1021.1 |
| 20260901013118 | 19 | 360 | 4.8 | 9.7 | 0.00 | 0.00 | 0.00 | 74 | 1021.2 |
| 20260901011556 | 19 | 0 | 1.6 | 4.8 | 0.00 | 0.00 | 0.00 | 73 | 1021.3 |
| 20260901010110 | 20 | 360 | 4.8 | 9.7 | 0.00 | 0.00 | 0.00 | 73 | 1021.2 |
| 20260901004557 | 20 | 360 | 1.6 | 6.4 | 0.00 | 0.00 | 0.00 | 67 | 1021.1 |
| 20260901003054 | 20 | 360 | 0.0 | 4.8 | 0.00 | 0.00 | 0.00 | 68 | 1021.0 |
| 20260901001601 | 20 | 0 | 0.0 | 3.2 | 0.00 | 0.00 | 0.00 | 66 | 1020.9 |
| 20260831234630 | 20 | 0 | 0.0 | 1.6 | 0.00 | 0.00 | 0.00 | 69 | 1021.0 |
| 20260831233100 | 20 | 0 | 0.0 | 3.2 | 0.00 | 0.00 | 0.00 | 68 | 1021.1 |
| 20260831231554 | 20 | 0 | 0.0 | 1.6 | 0.00 | 0.00 | 0.00 | 67 | 1021.1 |
| 20260831230052 | 21 | 360 | 1.6 | 4.8 | 0.00 | 0.00 | 0.00 | 68 | 1021.0 |
| 20260831224602 | 21 | 360 | 1.6 | 6.4 | 0.00 | 0.00 | 0.00 | 67 | 1021.0 |
| 20260831223104 | 21 | 0 | 0.0 | 3.2 | 0.00 | 0.00 | 0.00 | 62 | 1020.9 |
| 20260831221556 | 21 | 360 | 3.2 | 6.4 | 0.00 | 0.00 | 0.00 | 61 | 1020.8 |
| 20260831220104 | 21 | 360 | 3.2 | 8.0 | 0.00 | 0.00 | 0.00 | 63 | 1020.6 |
| 20260831214623 | 21 | 360 | 0.0 | 4.8 | 0.00 | 0.00 | 0.00 | 65 | 1020.6 |
| 20260831213107 | 21 | 360 | 0.0 | 4.8 | 0.00 | 0.00 | 0.00 | 58 | 1020.5 |
| 20260831211605 | 21 | 0 | 0.0 | 4.8 | 0.00 | 0.00 | 0.00 | 58 | 1020.3 |
| 20260831210104 | 21 | 360 | 1.6 | 4.8 | 0.00 | 0.00 | 0.00 | 63 | 1020.2 |
| 20260831204608 | 21 | 360 | 3.2 | 6.4 | 0.00 | 0.00 | 0.00 | 62 | 1020.1 |
| 20260831203103 | 22 | 360 | 1.6 | 8.0 | 0.00 | 0.00 | 0.00 | 65 | 1019.9 |
| 20260831201622 | 22 | 360 | 3.2 | 6.4 | 0.00 | 0.00 | 0.00 | 64 | 1019.8 |
| 20260831200106 | 22 | 360 | 1.6 | 6.4 | 0.00 | 0.00 | 0.00 | 64 | 1019.6 |
| 20260831194607 | 22 | 360 | 3.2 | 9.7 | 0.00 | 0.00 | 0.00 | 62 | 1019.7 |
| 20260831193131 | 22 | 331 | 3.2 | 8.0 | 0.00 | 0.00 | 0.00 | 64 | 1019.6 |
| 20260831191602 | 22 | 330 | 4.8 | 9.7 | 0.00 | 0.00 | 0.00 | 64 | 1019.7 |
| 20260831190104 | 22 | 344 | 1.6 | 8.0 | 0.00 | 0.00 | 0.00 | 66 | 1019.7 |
| 20260831184553 | 22 | 330 | 3.2 | 8.0 | 0.00 | 0.00 | 0.00 | 63 | 1019.5 |
| 20260831183105 | 22 | 336 | 4.8 | 8.0 | 0.00 | 0.00 | 0.00 | 67 | 1019.4 |
| 20260831181612 | 23 | 326 | 4.8 | 9.7 | 0.00 | 0.00 | 0.00 | 65 | 1019.3 |
| 20260831180108 | 23 | 17 | 1.6 | 4.8 | 0.00 | 0.00 | 0.00 | 66 | 1019.1 |
| 20260831174559 | 23 | 325 | 3.2 | 6.4 | 0.00 | 0.00 | 0.00 | 65 | 1019.1 |
| 20260831173105 | 24 | 360 | 4.8 | 9.7 | 0.00 | 0.00 | 0.00 | 66 | 1019.0 |
| 20260831171604 | 25 | 329 | 3.2 | 6.4 | 0.00 | 0.00 | 0.00 | 65 | 1019.1 |
| 20260831170119 | 26 | 329 | 3.2 | 6.4 | 0.00 | 0.00 | 0.00 | 63 | 1019.2 |
| 20260831164611 | 26 | 0 | 0.0 | 3.2 | 0.00 | 0.00 | 0.00 | 60 | 1019.2 |
| 20260831163103 | 27 | 0 | 0.0 | 1.6 | 0.00 | 0.00 | 0.00 | 59 | 1019.2 |
| 20260831161611 | 27 | 0 | 0.0 | 6.4 | 0.00 | 0.00 | 0.00 | 58 | 1019.3 |
| 20260831160110 | 28 | 150 | 1.6 | 6.4 | 0.00 | 0.00 | 0.00 | 56 | 1019.4 |
| 20260831154624 | 28 | 101 | 1.6 | 4.8 | 0.00 | 0.00 | 0.00 | 56 | 1019.5 |
| 20260831153059 | 29 | 124 | 1.6 | 8.0 | 0.00 | 0.00 | 0.00 | 55 | 1019.6 |
| 20260831151553 | 28 | 118 | 1.6 | 11.3 | 0.00 | 0.00 | 0.00 | 56 | 1019.6 |
| 20260831150106 | 28 | 112 | 4.8 | 14.5 | 0.00 | 0.00 | 0.00 | 56 | 1019.6 |
| 20260831144604 | 28 | 115 | 1.6 | 14.5 | 0.00 | 0.00 | 0.00 | 55 | 1019.6 |
| 20260831143055 | 28 | 92 | 4.8 | 14.5 | 0.00 | 0.00 | 0.00 | 56 | 1019.7 |
| 20260831141606 | 28 | 96 | 4.8 | 16.1 | 0.00 | 0.00 | 0.00 | 57 | 1019.6 |
| 20260831140054 | 28 | 11 | 4.8 | 17.7 | 0.00 | 0.00 | 0.00 | 56 | 1019.7 |
| 20260831134604 | 28 | 147 | 8.0 | 17.7 | 0.00 | 0.00 | 0.00 | 54 | 1019.7 |
| 20260831133101 | 28 | 140 | 8.0 | 22.5 | 0.00 | 0.00 | 0.00 | 54 | 1019.7 |
| 20260831131603 | 28 | 125 | 9.7 | 17.7 | 0.00 | 0.00 | 0.00 | 52 | 1019.8 |
| 20260831130109 | 29 | 92 | 6.4 | 17.7 | 0.00 | 0.00 | 0.00 | 51 | 1019.9 |
| 20260831124600 | 29 | 132 | 8.0 | 17.7 | 0.00 | 0.00 | 0.00 | 47 | 1019.9 |